contact:dominique.lefevre@mio.osupytheas.fr, maurice.libes@osupytheas.fr, didier.mallarino@osupytheas.fr
Project:EMSO http://www.emso-fr.org/EMSO-France
Depth: 2436.0 m
Title:EMSO Ligure Ouest : Data MII capteur MICROCAT
DateTime_Computer,Latitude,Longitude,Temperature,Conductivity,Pressure,DateTime_Instrument
DateTime_Computer,Latitude,Longitude,degC,S m-1,dbar,DateTime_Instrument
2019-05-29T00:01:52Z,42.805,6.029,13.2953,4.59955,2469.68,2019-5-29T02:02:07Z
2019-05-29T00:04:55Z,42.805,6.029,13.2952,4.59955,2469.667,2019-5-29T02:05:10Z
2019-05-29T00:07:58Z,42.805,6.029,13.2952,4.59956,2469.69,2019-5-29T02:08:13Z
2019-05-29T00:11:01Z,42.805,6.029,13.2953,4.59958,2469.643,2019-5-29T02:11:16Z
2019-05-29T00:14:04Z,42.805,6.029,13.2955,4.59955,2469.643,2019-5-29T02:14:19Z
2019-05-29T00:17:07Z,42.805,6.029,13.2953,4.59956,2469.727,2019-5-29T02:17:22Z
2019-05-29T00:20:10Z,42.805,6.029,13.2955,4.59954,2469.667,2019-5-29T02:20:25Z
2019-05-29T00:23:13Z,42.805,6.029,13.2956,4.59955,2469.667,2019-5-29T02:23:28Z
2019-05-29T00:26:16Z,42.805,6.029,13.2957,4.59954,2469.667,2019-5-29T02:26:31Z
2019-05-29T00:29:19Z,42.805,6.029,13.2952,4.59955,2469.667,2019-5-29T02:29:33Z
2019-05-29T00:32:22Z,42.805,6.029,13.2953,4.59955,2469.667,2019-5-29T02:32:36Z
2019-05-29T00:35:25Z,42.805,6.029,13.2953,4.59959,2469.667,2019-5-29T02:35:39Z
2019-05-29T00:38:28Z,42.805,6.029,13.2953,4.59957,2469.69,2019-5-29T02:38:42Z
2019-05-29T00:41:31Z,42.805,6.029,13.2953,4.59956,2469.69,2019-5-29T02:41:45Z
2019-05-29T00:44:33Z,42.805,6.029,13.2954,4.59955,2469.704,2019-5-29T02:44:48Z
2019-05-29T00:47:36Z,42.805,6.029,13.2954,4.59956,2469.69,2019-5-29T02:47:51Z
2019-05-29T00:50:39Z,42.805,6.029,13.2957,4.59956,2469.653,2019-5-29T02:50:54Z
2019-05-29T00:53:42Z,42.805,6.029,13.2961,4.59958,2469.667,2019-5-29T02:53:57Z
2019-05-29T00:56:45Z,42.805,6.029,13.2957,4.59957,2469.713,2019-5-29T02:57:00Z
2019-05-29T00:59:48Z,42.805,6.029,13.2956,4.59956,2469.704,2019-5-29T03:00:03Z
2019-05-29T01:02:51Z,42.805,6.029,13.2954,4.59957,2469.75,2019-5-29T03:03:06Z
2019-05-29T01:05:54Z,42.805,6.029,13.2954,4.59954,2469.704,2019-5-29T03:06:09Z
2019-05-29T01:08:57Z,42.805,6.029,13.2956,4.59956,2469.76,2019-5-29T03:09:12Z
2019-05-29T01:12:00Z,42.805,6.029,13.2957,4.59955,2469.727,2019-5-29T03:12:15Z
2019-05-29T01:15:03Z,42.805,6.029,13.2960,4.59954,2469.713,2019-5-29T03:15:18Z
2019-05-29T01:18:06Z,42.805,6.029,13.2955,4.59956,2469.713,2019-5-29T03:18:21Z
2019-05-29T01:21:09Z,42.805,6.029,13.2957,4.59957,2469.727,2019-5-29T03:21:24Z
2019-05-29T01:24:12Z,42.805,6.029,13.2953,4.59954,2469.667,2019-5-29T03:24:27Z
2019-05-29T01:27:15Z,42.805,6.029,13.2958,4.59956,2469.704,2019-5-29T03:27:30Z
2019-05-29T01:30:18Z,42.805,6.029,13.2956,4.59954,2469.75,2019-5-29T03:30:32Z
2019-05-29T01:33:21Z,42.805,6.029,13.2955,4.59958,2469.713,2019-5-29T03:33:35Z
2019-05-29T01:36:24Z,42.805,6.029,13.2954,4.59954,2469.727,2019-5-29T03:36:38Z
2019-05-29T01:39:27Z,42.805,6.029,13.2961,4.59955,2469.713,2019-5-29T03:39:41Z
2019-05-29T01:42:29Z,42.805,6.029,13.2960,4.59958,2469.727,2019-5-29T03:42:44Z
2019-05-29T01:45:32Z,42.805,6.029,13.2953,4.59954,2469.75,2019-5-29T03:45:47Z
2019-05-29T01:48:35Z,42.805,6.029,13.2960,4.59954,2469.713,2019-5-29T03:48:50Z
2019-05-29T01:51:38Z,42.805,6.029,13.2954,4.59954,2469.737,2019-5-29T03:51:53Z
2019-05-29T01:54:41Z,42.805,6.029,13.2955,4.59954,2469.713,2019-5-29T03:54:56Z
2019-05-29T01:57:44Z,42.805,6.029,13.2956,4.59954,2469.75,2019-5-29T03:57:59Z
2019-05-29T02:00:47Z,42.805,6.029,13.2957,4.59955,2469.737,2019-5-29T04:01:02Z
2019-05-29T02:03:50Z,42.805,6.029,13.2952,4.59954,2469.737,2019-5-29T04:04:05Z
2019-05-29T02:06:53Z,42.805,6.029,13.2952,4.59955,2469.713,2019-5-29T04:07:08Z
2019-05-29T02:09:56Z,42.805,6.029,13.2957,4.59954,2469.727,2019-5-29T04:10:11Z
2019-05-29T02:12:59Z,42.805,6.029,13.2953,4.59954,2469.69,2019-5-29T04:13:14Z
2019-05-29T02:16:02Z,42.805,6.029,13.2953,4.59954,2469.69,2019-5-29T04:16:17Z
2019-05-29T02:19:05Z,42.805,6.029,13.2957,4.59956,2469.713,2019-5-29T04:19:20Z
2019-05-29T02:22:08Z,42.805,6.029,13.2952,4.59953,2469.713,2019-5-29T04:22:23Z
2019-05-29T02:25:11Z,42.805,6.029,13.2958,4.59953,2469.723,2019-5-29T04:25:26Z
2019-05-29T02:28:14Z,42.805,6.029,13.2956,4.59954,2469.727,2019-5-29T04:28:28Z
2019-05-29T02:31:17Z,42.805,6.029,13.2956,4.59955,2469.773,2019-5-29T04:31:31Z
2019-05-29T02:34:20Z,42.805,6.029,13.2958,4.59954,2469.737,2019-5-29T04:34:34Z
2019-05-29T02:37:23Z,42.805,6.029,13.2954,4.59954,2469.737,2019-5-29T04:37:37Z
2019-05-29T02:40:25Z,42.805,6.029,13.2956,4.59956,2469.76,2019-5-29T04:40:40Z
2019-05-29T02:43:28Z,42.805,6.029,13.2958,4.59954,2469.76,2019-5-29T04:43:43Z
2019-05-29T02:46:31Z,42.805,6.029,13.2955,4.59953,2469.723,2019-5-29T04:46:46Z
2019-05-29T02:49:34Z,42.805,6.029,13.2955,4.59954,2469.723,2019-5-29T04:49:49Z
2019-05-29T02:52:37Z,42.805,6.029,13.2954,4.59954,2469.773,2019-5-29T04:52:52Z
2019-05-29T02:55:40Z,42.805,6.029,13.2953,4.59954,2469.773,2019-5-29T04:55:55Z
2019-05-29T02:58:43Z,42.805,6.029,13.2953,4.59953,2469.75,2019-5-29T04:58:58Z
2019-05-29T03:01:46Z,42.805,6.029,13.2956,4.59960,2469.76,2019-5-29T05:02:01Z
2019-05-29T03:04:49Z,42.805,6.029,13.2960,4.59954,2469.75,2019-5-29T05:05:04Z
2019-05-29T03:07:52Z,42.805,6.029,13.2957,4.59954,2469.75,2019-5-29T05:08:07Z
2019-05-29T03:10:55Z,42.805,6.029,13.2958,4.59964,2469.75,2019-5-29T05:11:10Z
2019-05-29T03:13:58Z,42.805,6.029,13.2957,4.59958,2469.737,2019-5-29T05:14:13Z
2019-05-29T03:17:01Z,42.805,6.029,13.2952,4.59954,2469.737,2019-5-29T05:17:16Z
2019-05-29T03:20:04Z,42.805,6.029,13.2954,4.59956,2469.75,2019-5-29T05:20:19Z
2019-05-29T03:23:07Z,42.805,6.029,13.2954,4.59956,2469.773,2019-5-29T05:23:22Z
2019-05-29T03:26:10Z,42.805,6.029,13.2952,4.59954,2469.76,2019-5-29T05:26:24Z
2019-05-29T03:29:13Z,42.805,6.029,13.2957,4.59954,2469.783,2019-5-29T05:29:27Z
2019-05-29T03:32:16Z,42.805,6.029,13.2954,4.59953,2469.76,2019-5-29T05:32:30Z
2019-05-29T03:35:19Z,42.805,6.029,13.2955,4.59954,2469.76,2019-5-29T05:35:33Z
2019-05-29T03:38:21Z,42.805,6.029,13.2954,4.59955,2469.773,2019-5-29T05:38:36Z
2019-05-29T03:41:24Z,42.805,6.029,13.2954,4.59955,2469.783,2019-5-29T05:41:39Z
2019-05-29T03:44:27Z,42.805,6.029,13.2952,4.59954,2469.76,2019-5-29T05:44:42Z
2019-05-29T03:47:30Z,42.805,6.029,13.2953,4.59954,2469.76,2019-5-29T05:47:45Z
2019-05-29T03:50:33Z,42.805,6.029,13.2954,4.59953,2469.75,2019-5-29T05:50:48Z
2019-05-29T03:53:36Z,42.805,6.029,13.2953,4.59954,2469.76,2019-5-29T05:53:51Z
2019-05-29T03:56:39Z,42.805,6.029,13.2952,4.59953,2469.75,2019-5-29T05:56:54Z
2019-05-29T03:59:42Z,42.805,6.029,13.2953,4.59952,2469.75,2019-5-29T05:59:57Z
2019-05-29T04:02:45Z,42.805,6.029,13.2956,4.59953,2469.783,2019-5-29T06:03:00Z
2019-05-29T04:05:48Z,42.805,6.029,13.2953,4.59953,2469.773,2019-5-29T06:06:03Z
2019-05-29T04:08:51Z,42.805,6.029,13.2953,4.59953,2469.797,2019-5-29T06:09:06Z
2019-05-29T04:11:54Z,42.805,6.029,13.2954,4.59952,2469.76,2019-5-29T06:12:09Z
2019-05-29T04:14:57Z,42.805,6.029,13.2954,4.59953,2469.773,2019-5-29T06:15:12Z
2019-05-29T04:18:00Z,42.805,6.029,13.2953,4.59957,2469.75,2019-5-29T06:18:15Z
2019-05-29T04:21:03Z,42.805,6.029,13.2953,4.59958,2469.773,2019-5-29T06:21:18Z
2019-05-29T04:24:06Z,42.805,6.029,13.2955,4.59954,2469.773,2019-5-29T06:24:21Z
2019-05-29T04:27:09Z,42.805,6.029,13.2956,4.59952,2469.797,2019-5-29T06:27:23Z
2019-05-29T04:30:12Z,42.805,6.029,13.2950,4.59954,2469.75,2019-5-29T06:30:26Z
2019-05-29T04:33:15Z,42.805,6.029,13.2952,4.59954,2469.75,2019-5-29T06:33:29Z
2019-05-29T04:36:17Z,42.805,6.029,13.2952,4.59955,2469.76,2019-5-29T06:36:32Z
2019-05-29T04:39:20Z,42.805,6.029,13.2948,4.59955,2469.76,2019-5-29T06:39:35Z
2019-05-29T04:42:23Z,42.805,6.029,13.2957,4.59954,2469.783,2019-5-29T06:42:38Z
2019-05-29T04:45:26Z,42.805,6.029,13.2954,4.59956,2469.75,2019-5-29T06:45:41Z
2019-05-29T04:48:29Z,42.805,6.029,13.2953,4.59954,2469.737,2019-5-29T06:48:44Z
2019-05-29T04:51:32Z,42.805,6.029,13.2957,4.59954,2469.737,2019-5-29T06:51:47Z
2019-05-29T04:54:35Z,42.805,6.029,13.2958,4.59953,2469.737,2019-5-29T06:54:50Z
2019-05-29T04:57:38Z,42.805,6.029,13.2951,4.59953,2469.773,2019-5-29T06:57:53Z
2019-05-29T05:00:41Z,42.805,6.029,13.2955,4.59953,2469.737,2019-5-29T07:00:56Z
2019-05-29T05:03:44Z,42.805,6.029,13.2953,4.59953,2469.75,2019-5-29T07:03:59Z
2019-05-29T05:06:47Z,42.805,6.029,13.2958,4.59953,2469.773,2019-5-29T07:07:02Z
2019-05-29T05:09:50Z,42.805,6.029,13.2956,4.59954,2469.773,2019-5-29T07:10:05Z
2019-05-29T05:12:53Z,42.805,6.029,13.2952,4.59953,2469.737,2019-5-29T07:13:08Z
2019-05-29T05:15:56Z,42.805,6.029,13.2953,4.59956,2469.75,2019-5-29T07:16:11Z
2019-05-29T05:18:59Z,42.805,6.029,13.2956,4.59953,2469.773,2019-5-29T07:19:14Z
2019-05-29T05:22:02Z,42.805,6.029,13.2952,4.59953,2469.75,2019-5-29T07:22:17Z
2019-05-29T05:25:05Z,42.805,6.029,13.2952,4.59954,2469.713,2019-5-29T07:25:19Z
2019-05-29T05:28:08Z,42.805,6.029,13.2954,4.59957,2469.75,2019-5-29T07:28:22Z
2019-05-29T05:31:11Z,42.805,6.029,13.2953,4.59956,2469.76,2019-5-29T07:31:25Z
2019-05-29T05:34:14Z,42.805,6.029,13.2952,4.59953,2469.737,2019-5-29T07:34:28Z
2019-05-29T05:37:16Z,42.805,6.029,13.2953,4.59954,2469.713,2019-5-29T07:37:31Z
2019-05-29T05:40:19Z,42.805,6.029,13.2955,4.59954,2469.76,2019-5-29T07:40:34Z
2019-05-29T05:43:22Z,42.805,6.029,13.2953,4.59954,2469.75,2019-5-29T07:43:37Z
2019-05-29T05:46:25Z,42.805,6.029,13.2957,4.59954,2469.737,2019-5-29T07:46:40Z
2019-05-29T05:49:28Z,42.805,6.029,13.2953,4.59954,2469.75,2019-5-29T07:49:43Z
2019-05-29T05:52:31Z,42.805,6.029,13.2953,4.59954,2469.76,2019-5-29T07:52:46Z
2019-05-29T05:55:34Z,42.805,6.029,13.2954,4.59954,2469.727,2019-5-29T07:55:49Z
2019-05-29T05:58:37Z,42.805,6.029,13.2957,4.59954,2469.75,2019-5-29T07:58:52Z
2019-05-29T06:01:40Z,42.805,6.029,13.2957,4.59954,2469.75,2019-5-29T08:01:55Z
2019-05-29T06:04:43Z,42.805,6.029,13.2954,4.59954,2469.737,2019-5-29T08:04:58Z
2019-05-29T06:07:46Z,42.805,6.029,13.2957,4.59956,2469.713,2019-5-29T08:08:01Z
2019-05-29T06:10:49Z,42.805,6.029,13.2954,4.59954,2469.737,2019-5-29T08:11:04Z
2019-05-29T06:13:52Z,42.805,6.029,13.2955,4.59953,2469.69,2019-5-29T08:14:07Z
2019-05-29T06:16:55Z,42.805,6.029,13.2953,4.59956,2469.727,2019-5-29T08:17:10Z
2019-05-29T06:19:58Z,42.805,6.029,13.2955,4.59954,2469.727,2019-5-29T08:20:13Z
2019-05-29T06:23:01Z,42.805,6.029,13.2953,4.59953,2469.69,2019-5-29T08:23:16Z
2019-05-29T06:26:04Z,42.805,6.029,13.2955,4.59956,2469.727,2019-5-29T08:26:18Z
2019-05-29T06:29:07Z,42.805,6.029,13.2956,4.59954,2469.75,2019-5-29T08:29:21Z
2019-05-29T06:32:10Z,42.805,6.029,13.2953,4.59952,2469.667,2019-5-29T08:32:24Z
2019-05-29T06:35:12Z,42.805,6.029,13.2953,4.59954,2469.713,2019-5-29T08:35:27Z
2019-05-29T06:38:15Z,42.805,6.029,13.2952,4.59952,2469.727,2019-5-29T08:38:30Z
2019-05-29T06:41:18Z,42.805,6.029,13.2953,4.59956,2469.69,2019-5-29T08:41:33Z
2019-05-29T06:44:21Z,42.805,6.029,13.2950,4.59953,2469.727,2019-5-29T08:44:36Z
2019-05-29T06:47:24Z,42.805,6.029,13.2953,4.59953,2469.704,2019-5-29T08:47:39Z
2019-05-29T06:50:27Z,42.805,6.029,13.2952,4.59955,2469.69,2019-5-29T08:50:42Z
2019-05-29T06:53:30Z,42.805,6.029,13.2953,4.59956,2469.69,2019-5-29T08:53:45Z
2019-05-29T06:56:33Z,42.805,6.029,13.2955,4.59954,2469.713,2019-5-29T08:56:48Z
2019-05-29T06:59:36Z,42.805,6.029,13.2952,4.59954,2469.713,2019-5-29T08:59:51Z
2019-05-29T07:02:39Z,42.805,6.029,13.2952,4.59955,2469.727,2019-5-29T09:02:54Z
2019-05-29T07:05:42Z,42.805,6.029,13.2952,4.59956,2469.704,2019-5-29T09:05:57Z
2019-05-29T07:08:45Z,42.805,6.029,13.2953,4.59953,2469.704,2019-5-29T09:09:00Z
2019-05-29T07:11:48Z,42.805,6.029,13.2948,4.59954,2469.704,2019-5-29T09:12:03Z
2019-05-29T07:14:51Z,42.805,6.029,13.2954,4.59954,2469.713,2019-5-29T09:15:06Z
2019-05-29T07:17:54Z,42.805,6.029,13.2956,4.59956,2469.704,2019-5-29T09:18:09Z
2019-05-29T07:20:57Z,42.805,6.029,13.2955,4.59955,2469.69,2019-5-29T09:21:12Z
2019-05-29T07:24:00Z,42.805,6.029,13.2953,4.59955,2469.704,2019-5-29T09:24:14Z
2019-05-29T07:27:03Z,42.805,6.029,13.2954,4.59955,2469.68,2019-5-29T09:27:17Z
2019-05-29T07:30:06Z,42.805,6.029,13.2957,4.59954,2469.69,2019-5-29T09:30:20Z
2019-05-29T07:33:09Z,42.805,6.029,13.2948,4.59953,2469.704,2019-5-29T09:33:23Z
2019-05-29T07:36:11Z,42.805,6.029,13.2954,4.59955,2469.69,2019-5-29T09:36:26Z
2019-05-29T07:39:14Z,42.805,6.029,13.2954,4.59955,2469.667,2019-5-29T09:39:29Z
2019-05-29T07:42:17Z,42.805,6.029,13.2953,4.59955,2469.653,2019-5-29T09:42:32Z
2019-05-29T07:45:20Z,42.805,6.029,13.2957,4.59956,2469.69,2019-5-29T09:45:35Z
2019-05-29T07:48:23Z,42.805,6.029,13.2955,4.59958,2469.69,2019-5-29T09:48:38Z
2019-05-29T07:51:26Z,42.805,6.029,13.2953,4.59956,2469.657,2019-5-29T09:51:41Z
2019-05-29T07:54:29Z,42.805,6.029,13.2957,4.59954,2469.667,2019-5-29T09:54:44Z
2019-05-29T07:57:32Z,42.805,6.029,13.2957,4.59954,2469.68,2019-5-29T09:57:47Z
2019-05-29T08:00:35Z,42.805,6.029,13.2957,4.59955,2469.68,2019-5-29T10:00:50Z
2019-05-29T08:03:38Z,42.805,6.029,13.2961,4.59966,2469.68,2019-5-29T10:03:53Z
2019-05-29T08:06:41Z,42.805,6.029,13.2952,4.59954,2469.69,2019-5-29T10:06:56Z
2019-05-29T08:09:44Z,42.805,6.029,13.2955,4.59955,2469.68,2019-5-29T10:09:59Z
2019-05-29T08:12:47Z,42.805,6.029,13.2955,4.59956,2469.657,2019-5-29T10:13:02Z
2019-05-29T08:15:50Z,42.805,6.029,13.2958,4.59955,2469.667,2019-5-29T10:16:05Z
2019-05-29T08:18:53Z,42.805,6.029,13.2953,4.59955,2469.667,2019-5-29T10:19:08Z
2019-05-29T08:21:56Z,42.805,6.029,13.2953,4.59955,2469.643,2019-5-29T10:22:11Z
2019-05-29T08:24:59Z,42.805,6.029,13.2957,4.59955,2469.643,2019-5-29T10:25:14Z
2019-05-29T08:28:02Z,42.805,6.029,13.2957,4.59955,2469.643,2019-5-29T10:28:17Z
2019-05-29T08:31:05Z,42.805,6.029,13.2952,4.59958,2469.62,2019-5-29T10:31:19Z
2019-05-29T08:34:08Z,42.805,6.029,13.2964,4.59960,2469.657,2019-5-29T10:34:22Z
2019-05-29T08:37:11Z,42.805,6.029,13.2979,4.59984,2469.704,2019-5-29T10:37:25Z
2019-05-29T08:40:13Z,42.805,6.029,13.2969,4.59970,2469.643,2019-5-29T10:40:28Z
2019-05-29T08:43:16Z,42.805,6.029,13.2959,4.59955,2469.643,2019-5-29T10:43:31Z
2019-05-29T08:46:19Z,42.805,6.029,13.2977,4.59976,2469.657,2019-5-29T10:46:34Z
2019-05-29T08:49:22Z,42.805,6.029,13.2961,4.59956,2469.657,2019-5-29T10:49:37Z
2019-05-29T08:52:25Z,42.805,6.029,13.2959,4.59956,2469.667,2019-5-29T10:52:40Z
2019-05-29T08:55:28Z,42.805,6.029,13.2955,4.59955,2469.643,2019-5-29T10:55:43Z
2019-05-29T08:58:31Z,42.805,6.029,13.2967,4.59967,2469.643,2019-5-29T10:58:46Z
2019-05-29T09:01:34Z,42.805,6.029,13.2964,4.59981,2469.643,2019-5-29T11:01:49Z
2019-05-29T09:04:37Z,42.805,6.029,13.2982,4.59991,2469.634,2019-5-29T11:04:52Z
2019-05-29T09:07:40Z,42.805,6.029,13.2957,4.59956,2469.634,2019-5-29T11:07:55Z
2019-05-29T09:10:43Z,42.805,6.029,13.2960,4.59960,2469.657,2019-5-29T11:10:58Z
2019-05-29T09:13:46Z,42.805,6.029,13.2966,4.59972,2469.61,2019-5-29T11:14:01Z
2019-05-29T09:16:49Z,42.805,6.029,13.2974,4.59992,2469.62,2019-5-29T11:17:04Z
2019-05-29T09:19:52Z,42.805,6.029,13.2974,4.60015,2469.643,2019-5-29T11:20:07Z
2019-05-29T09:22:55Z,42.805,6.029,13.2974,4.59978,2469.643,2019-5-29T11:23:10Z
2019-05-29T09:25:58Z,42.805,6.029,13.2986,4.59979,2469.597,2019-5-29T11:26:13Z
2019-05-29T09:29:01Z,42.805,6.029,13.2968,4.59998,2469.597,2019-5-29T11:29:16Z
2019-05-29T09:32:04Z,42.805,6.029,13.2971,4.59986,2469.587,2019-5-29T11:32:18Z
2019-05-29T09:35:07Z,42.805,6.029,13.2976,4.60001,2469.634,2019-5-29T11:35:21Z
2019-05-29T09:38:10Z,42.805,6.029,13.2974,4.60002,2469.62,2019-5-29T11:38:24Z
2019-05-29T09:41:13Z,42.805,6.029,13.2975,4.60002,2469.667,2019-5-29T11:41:27Z
2019-05-29T09:44:15Z,42.805,6.029,13.2973,4.59997,2469.634,2019-5-29T11:44:30Z
2019-05-29T09:47:18Z,42.805,6.029,13.2975,4.60006,2469.634,2019-5-29T11:47:33Z
2019-05-29T09:50:21Z,42.805,6.029,13.2981,4.59987,2469.61,2019-5-29T11:50:36Z
2019-05-29T09:53:24Z,42.805,6.029,13.2981,4.59999,2469.634,2019-5-29T11:53:39Z
2019-05-29T09:56:27Z,42.805,6.029,13.2979,4.60015,2469.634,2019-5-29T11:56:42Z
2019-05-29T09:59:30Z,42.805,6.029,13.2982,4.59981,2469.634,2019-5-29T11:59:45Z
2019-05-29T10:02:33Z,42.805,6.029,13.2979,4.60011,2469.597,2019-5-29T12:02:48Z
2019-05-29T10:05:36Z,42.805,6.029,13.2976,4.59998,2469.62,2019-5-29T12:05:51Z
2019-05-29T10:08:39Z,42.805,6.029,13.2975,4.60006,2469.61,2019-5-29T12:08:54Z
2019-05-29T10:11:42Z,42.805,6.029,13.2973,4.60004,2469.634,2019-5-29T12:11:57Z
2019-05-29T10:14:45Z,42.805,6.029,13.2971,4.59996,2469.634,2019-5-29T12:15:00Z
2019-05-29T10:17:48Z,42.805,6.029,13.2967,4.60003,2469.62,2019-5-29T12:18:03Z
2019-05-29T10:20:51Z,42.805,6.029,13.2968,4.60001,2469.61,2019-5-29T12:21:06Z
2019-05-29T10:23:54Z,42.805,6.029,13.2971,4.59999,2469.634,2019-5-29T12:24:09Z
2019-05-29T10:26:57Z,42.805,6.029,13.2973,4.59996,2469.657,2019-5-29T12:27:12Z
2019-05-29T10:30:00Z,42.805,6.029,13.2967,4.59989,2469.634,2019-5-29T12:30:15Z
2019-05-29T10:33:03Z,42.805,6.029,13.2976,4.60006,2469.62,2019-5-29T12:33:18Z
2019-05-29T10:36:06Z,42.805,6.029,13.2975,4.60014,2469.657,2019-5-29T12:36:21Z
2019-05-29T10:39:09Z,42.805,6.029,13.2974,4.60011,2469.573,2019-5-29T12:39:23Z
2019-05-29T10:42:12Z,42.805,6.029,13.2975,4.60004,2469.597,2019-5-29T12:42:26Z
2019-05-29T10:45:15Z,42.805,6.029,13.2977,4.59999,2469.657,2019-5-29T12:45:29Z
2019-05-29T10:48:18Z,42.805,6.029,13.2976,4.59998,2469.634,2019-5-29T12:48:32Z
2019-05-29T10:51:20Z,42.805,6.029,13.2971,4.59996,2469.61,2019-5-29T12:51:35Z
2019-05-29T10:54:23Z,42.805,6.029,13.2979,4.59979,2469.657,2019-5-29T12:54:38Z
2019-05-29T10:57:26Z,42.805,6.029,13.2981,4.59988,2469.62,2019-5-29T12:57:41Z
2019-05-29T11:00:29Z,42.805,6.029,13.2980,4.60011,2469.634,2019-5-29T13:00:44Z
2019-05-29T11:03:32Z,42.805,6.029,13.2981,4.60000,2469.61,2019-5-29T13:03:47Z
2019-05-29T11:06:35Z,42.805,6.029,13.2970,4.59978,2469.634,2019-5-29T13:06:50Z
2019-05-29T11:09:38Z,42.805,6.029,13.2977,4.60000,2469.643,2019-5-29T13:09:53Z
2019-05-29T11:12:41Z,42.805,6.029,13.2982,4.60008,2469.61,2019-5-29T13:12:56Z
2019-05-29T11:15:44Z,42.805,6.029,13.2976,4.60002,2469.634,2019-5-29T13:15:59Z
2019-05-29T11:18:47Z,42.805,6.029,13.2979,4.59993,2469.634,2019-5-29T13:19:02Z
2019-05-29T11:21:50Z,42.805,6.029,13.2974,4.59981,2469.597,2019-5-29T13:22:05Z
2019-05-29T11:24:53Z,42.805,6.029,13.2968,4.59999,2469.634,2019-5-29T13:25:08Z
2019-05-29T11:27:56Z,42.805,6.029,13.2966,4.60011,2469.61,2019-5-29T13:28:11Z
2019-05-29T11:30:59Z,42.805,6.029,13.2967,4.60003,2469.657,2019-5-29T13:31:14Z
2019-05-29T11:34:02Z,42.805,6.029,13.2967,4.60009,2469.68,2019-5-29T13:34:17Z
2019-05-29T11:37:05Z,42.805,6.029,13.2979,4.59988,2469.597,2019-5-29T13:37:20Z
2019-05-29T11:40:08Z,42.805,6.029,13.2970,4.60008,2469.634,2019-5-29T13:40:23Z
2019-05-29T11:43:11Z,42.805,6.029,13.2978,4.59998,2469.61,2019-5-29T13:43:26Z
2019-05-29T11:46:14Z,42.805,6.029,13.2965,4.60008,2469.61,2019-5-29T13:46:28Z
2019-05-29T11:49:17Z,42.805,6.029,13.2974,4.60016,2469.62,2019-5-29T13:49:31Z
2019-05-29T11:52:20Z,42.805,6.029,13.2973,4.59983,2469.62,2019-5-29T13:52:34Z
2019-05-29T11:55:23Z,42.805,6.029,13.2965,4.59987,2469.643,2019-5-29T13:55:37Z
2019-05-29T11:58:25Z,42.805,6.029,13.2979,4.59996,2469.597,2019-5-29T13:58:40Z
2019-05-29T12:01:28Z,42.805,6.029,13.2979,4.59991,2469.634,2019-5-29T14:01:43Z
2019-05-29T12:04:31Z,42.805,6.029,13.2973,4.60024,2469.606,2019-5-29T14:04:46Z
2019-05-29T12:07:34Z,42.805,6.029,13.2985,4.60008,2469.634,2019-5-29T14:07:49Z
2019-05-29T12:10:37Z,42.805,6.029,13.2973,4.60022,2469.657,2019-5-29T14:10:52Z
2019-05-29T12:13:40Z,42.805,6.029,13.2977,4.59987,2469.643,2019-5-29T14:13:55Z
2019-05-29T12:16:43Z,42.805,6.029,13.2975,4.60006,2469.657,2019-5-29T14:16:58Z
2019-05-29T12:19:46Z,42.805,6.029,13.2979,4.59999,2469.643,2019-5-29T14:20:01Z
2019-05-29T12:22:49Z,42.805,6.029,13.2975,4.59999,2469.61,2019-5-29T14:23:04Z
2019-05-29T12:25:52Z,42.805,6.029,13.2982,4.59999,2469.657,2019-5-29T14:26:07Z
2019-05-29T12:28:55Z,42.805,6.029,13.2974,4.60006,2469.643,2019-5-29T14:29:10Z
2019-05-29T12:31:58Z,42.805,6.029,13.2990,4.60012,2469.62,2019-5-29T14:32:13Z
2019-05-29T12:35:01Z,42.805,6.029,13.2988,4.59997,2469.657,2019-5-29T14:35:16Z
2019-05-29T12:38:04Z,42.805,6.029,13.2982,4.59995,2469.657,2019-5-29T14:38:19Z
2019-05-29T12:41:07Z,42.805,6.029,13.2969,4.60009,2469.634,2019-5-29T14:41:22Z
2019-05-29T12:44:10Z,42.805,6.029,13.2979,4.60015,2469.643,2019-5-29T14:44:25Z
2019-05-29T12:47:13Z,42.805,6.029,13.2976,4.59982,2469.657,2019-5-29T14:47:28Z
2019-05-29T12:50:16Z,42.805,6.029,13.2964,4.59980,2469.68,2019-5-29T14:50:30Z
2019-05-29T12:53:19Z,42.805,6.029,13.2979,4.59975,2469.643,2019-5-29T14:53:33Z
2019-05-29T12:56:22Z,42.805,6.029,13.2977,4.59982,2469.643,2019-5-29T14:56:36Z
2019-05-29T12:59:25Z,42.805,6.029,13.2976,4.59980,2469.62,2019-5-29T14:59:39Z
2019-05-29T13:02:27Z,42.805,6.029,13.2976,4.60005,2469.657,2019-5-29T15:02:42Z
2019-05-29T13:05:30Z,42.805,6.029,13.2976,4.59993,2469.643,2019-5-29T15:05:45Z
2019-05-29T13:08:33Z,42.805,6.029,13.2971,4.60006,2469.667,2019-5-29T15:08:48Z
2019-05-29T13:11:36Z,42.805,6.029,13.2973,4.60014,2469.69,2019-5-29T15:11:51Z
2019-05-29T13:14:39Z,42.805,6.029,13.2961,4.59980,2469.657,2019-5-29T15:14:54Z
2019-05-29T13:17:42Z,42.805,6.029,13.2976,4.59983,2469.657,2019-5-29T15:17:57Z
2019-05-29T13:20:45Z,42.805,6.029,13.2972,4.59994,2469.634,2019-5-29T15:21:00Z
2019-05-29T13:23:48Z,42.805,6.029,13.2973,4.59972,2469.667,2019-5-29T15:24:03Z
2019-05-29T13:26:51Z,42.805,6.029,13.2974,4.60003,2469.597,2019-5-29T15:27:06Z
2019-05-29T13:29:54Z,42.805,6.029,13.2967,4.60021,2469.704,2019-5-29T15:30:09Z
2019-05-29T13:32:57Z,42.805,6.029,13.2981,4.60020,2469.68,2019-5-29T15:33:12Z
2019-05-29T13:36:00Z,42.805,6.029,13.2971,4.59991,2469.667,2019-5-29T15:36:15Z
2019-05-29T13:39:03Z,42.805,6.029,13.2968,4.59979,2469.667,2019-5-29T15:39:18Z
2019-05-29T13:42:06Z,42.805,6.029,13.2970,4.59978,2469.68,2019-5-29T15:42:21Z
2019-05-29T13:45:09Z,42.805,6.029,13.2974,4.59989,2469.69,2019-5-29T15:45:24Z
2019-05-29T13:48:12Z,42.805,6.029,13.2986,4.59971,2469.727,2019-5-29T15:48:27Z
2019-05-29T13:51:15Z,42.805,6.029,13.2977,4.59977,2469.667,2019-5-29T15:51:30Z
2019-05-29T13:54:18Z,42.805,6.029,13.2973,4.59981,2469.643,2019-5-29T15:54:32Z
2019-05-29T13:57:21Z,42.805,6.029,13.2968,4.60002,2469.667,2019-5-29T15:57:35Z
2019-05-29T14:00:24Z,42.805,6.029,13.2986,4.60013,2469.667,2019-5-29T16:00:38Z
2019-05-29T14:03:27Z,42.805,6.029,13.2973,4.59986,2469.704,2019-5-29T16:03:41Z
2019-05-29T14:06:29Z,42.805,6.029,13.2972,4.60003,2469.727,2019-5-29T16:06:44Z
2019-05-29T14:09:32Z,42.805,6.029,13.2991,4.59986,2469.667,2019-5-29T16:09:47Z
2019-05-29T14:12:35Z,42.805,6.029,13.2982,4.59974,2469.657,2019-5-29T16:12:50Z
2019-05-29T14:15:38Z,42.805,6.029,13.2968,4.59993,2469.657,2019-5-29T16:15:53Z
2019-05-29T14:18:41Z,42.805,6.029,13.2969,4.59990,2469.704,2019-5-29T16:18:56Z
2019-05-29T14:21:44Z,42.805,6.029,13.2971,4.59991,2469.676,2019-5-29T16:21:59Z
2019-05-29T14:24:47Z,42.805,6.029,13.2969,4.59985,2469.704,2019-5-29T16:25:02Z
2019-05-29T14:27:50Z,42.805,6.029,13.2973,4.59982,2469.713,2019-5-29T16:28:05Z
2019-05-29T14:30:53Z,42.805,6.029,13.2971,4.60004,2469.68,2019-5-29T16:31:08Z
2019-05-29T14:33:56Z,42.805,6.029,13.2978,4.59988,2469.69,2019-5-29T16:34:11Z
2019-05-29T14:36:59Z,42.805,6.029,13.2979,4.59988,2469.69,2019-5-29T16:37:14Z
2019-05-29T14:40:02Z,42.805,6.029,13.2978,4.60018,2469.713,2019-5-29T16:40:17Z
2019-05-29T14:43:05Z,42.805,6.029,13.2984,4.59988,2469.704,2019-5-29T16:43:20Z
2019-05-29T14:46:08Z,42.805,6.029,13.2976,4.60001,2469.704,2019-5-29T16:46:23Z
2019-05-29T14:49:11Z,42.805,6.029,13.2971,4.59986,2469.704,2019-5-29T16:49:26Z
2019-05-29T14:52:14Z,42.805,6.029,13.2972,4.60013,2469.727,2019-5-29T16:52:29Z
2019-05-29T14:55:17Z,42.805,6.029,13.2971,4.60001,2469.704,2019-5-29T16:55:32Z
2019-05-29T14:58:20Z,42.805,6.029,13.2978,4.60004,2469.69,2019-5-29T16:58:35Z
2019-05-29T15:01:23Z,42.805,6.029,13.2975,4.60014,2469.75,2019-5-29T17:01:37Z
2019-05-29T15:04:26Z,42.805,6.029,13.2980,4.59991,2469.713,2019-5-29T17:04:40Z
2019-05-29T15:07:29Z,42.805,6.029,13.2974,4.60000,2469.727,2019-5-29T17:07:43Z
2019-05-29T15:10:31Z,42.805,6.029,13.2971,4.59994,2469.704,2019-5-29T17:10:46Z
2019-05-29T15:13:34Z,42.805,6.029,13.2982,4.59973,2469.704,2019-5-29T17:13:49Z